OK2MK-6 Weather Reports


Display with metric or nautical units.
time (UTC)temp
F
wind
direction
speed
MPH
gust
MPH
rain 1hr
in
rain 24hr
in
rain mn
in
humidity
%
barometer
mb
20260505011625 0 135 1.0 2.0 0.00 0.00 0.00 1007.6
20260505010444 0 135 0.0 3.0 0.00 0.00 0.00 1007.4
20260505005301 0 225 3.0 5.0 0.00 0.00 0.00 1007.4
20260505004116 0 135 3.0 5.0 0.00 0.00 0.00 1007.3
20260505002934 0 135 3.0 4.0 0.00 0.00 0.00 1007.5
20260505001751 0 180 2.0 5.0 0.00 0.00 0.00 1007.7
20260505000609 0 135 2.0 5.0 0.00 0.00 0.00 1007.8
20260504235426 0 135 3.0 7.0 0.00 0.00 0.00 1007.9
20260504234241 0 135 5.0 6.0 0.00 0.00 0.00 1008.0
20260504233059 0 135 4.0 7.0 0.00 0.00 0.00 1008.0
20260504231917 0 90 5.0 8.0 0.00 0.00 0.00 1008.1
20260504230734 0 135 6.0 9.0 0.00 0.00 0.00 1008.1
20260504225551 0 135 5.0 7.0 0.00 0.00 0.00 1008.3
20260504224409 0 338 2.0 8.0 0.00 0.00 0.00 1008.3
20260504223226 0 158 4.0 9.0 0.00 0.00 0.00 1008.4
20260504222043 0 135 6.0 8.0 0.00 0.00 0.00 1008.4
20260504220902 0 135 4.0 8.0 0.00 0.00 0.00 1008.6
20260504215718 0 135 3.0 5.0 0.00 0.00 0.00 1008.9
20260504214536 0 158 5.0 6.0 0.00 0.00 0.00 1008.9
20260504213355 0 135 2.0 5.0 0.00 0.00 0.00 1008.9
20260504212211 0 158 3.0 6.0 0.00 0.00 0.00 1008.9
20260504211027 0 135 3.0 6.0 0.00 0.00 0.00 1008.9
20260504205844 0 135 2.0 7.0 0.00 0.00 0.00 1008.9
20260504204702 0 135 4.0 6.0 0.00 0.00 0.00 1008.8
20260504203520 0 135 5.0 6.0 0.00 0.00 0.00 1008.9
20260504202337 0 180 3.0 8.0 0.00 0.00 0.00 1008.8
20260504201154 0 158 4.0 6.0 0.00 0.00 0.00 1008.8
20260504200011 0 135 3.0 8.0 0.00 0.00 0.00 1008.7
20260504194827 0 135 5.0 8.0 0.00 0.00 0.00 1008.6
20260504193639 0 158 5.0 8.0 0.00 0.00 0.00 1008.7
20260504192454 0 135 3.0 9.0 0.00 0.00 0.00 1008.6
20260504191314 0 180 8.0 9.0 0.00 0.00 0.00 1008.6
20260504190135 0 158 4.0 7.0 0.00 0.00 0.00 1008.5
20260504184954 0 180 4.0 7.0 0.00 0.00 0.00 1008.3
20260504183816 0 135 7.0 8.0 0.00 0.00 0.00 1008.2
20260504182638 0 158 4.0 5.0 0.00 0.00 0.00 1008.0
20260504181459 0 180 2.0 5.0 0.00 0.00 0.00 1007.9
20260504180320 0 180 4.0 5.0 0.00 0.00 0.00 1007.7
20260504175142 0 180 3.0 6.0 0.00 0.00 0.00 1007.6
20260504174002 0 225 4.0 6.0 0.00 0.00 0.00 1007.5
20260504172824 0 225 4.0 8.0 0.00 0.00 0.00 1007.3
20260504171645 0 180 5.0 10.0 0.00 0.00 0.00 1007.2
20260504170507 0 180 6.0 10.0 0.00 0.00 0.00 1007.0
20260504150842 0 315 3.0 6.0 0.00 0.00 0.00 1007.5
20260504141028 0 225 5.0 6.0 0.00 0.00 0.00 1008.1
20260504120223 0 203 9.0 14.0 0.00 0.00 0.00 1009.1
20260504110408 0 270 5.0 14.0 0.00 0.00 0.00 1009.6
20260504100557 0 248 6.0 13.0 0.00 0.00 0.00 1010.4
20260504080933 0 180 7.0 11.0 0.00 0.00 0.00 1010.9
20260504060130 0 180 6.0 11.0 0.00 0.00 0.00 1011.2
20260504050315 0 180 6.0 14.0 0.00 0.00 0.00 1012.0
20260504045135 0 180 6.0 9.0 0.00 0.00 0.00 1011.8
20260504043957 0 135 3.0 12.0 0.00 0.00 0.00 1011.7
20260504042818 0 135 6.0 16.0 0.00 0.00 0.00 1011.7
20260504041640 0 135 8.0 16.0 0.00 0.00 0.00 1011.6
20260504040458 0 180 5.0 11.0 0.00 0.00 0.00 1011.8
20260504035317 0 180 4.0 12.0 0.00 0.00 0.00 1011.9
20260504034133 0 180 8.0 15.0 0.00 0.00 0.00 1011.7
20260504032948 0 68 7.0 16.0 0.00 0.00 0.00 1011.7
20260504030621 0 135 9.0 12.0 0.00 0.00 0.00 1011.8
20260504025438 0 180 5.0 12.0 0.00 0.00 0.00 1011.9
20260504024255 0 180 5.0 13.0 0.00 0.00 0.00 1012.0
20260504023111 0 135 6.0 11.0 0.00 0.00 0.00 1011.9
20260504021907 0 135 7.0 10.0 0.00 0.00 0.00 1012.0
20260504020724 0 90 4.0 9.0 0.00 0.00 0.00 1012.0
20260504015542 0 135 3.0 7.0 0.00 0.00 0.00 1012.1
20260504014400 0 135 2.0 7.0 0.00 0.00 0.00 1012.0
20260504013217 0 180 2.0 10.0 0.00 0.00 0.00 1011.9
20260504012035 0 135 4.0 8.0 0.00 0.00 0.00 1011.9